Погода в Бережном

Россия / Вологодская область     59°54′52″N   39°16′47″E
темп.,
°C
ветер,
м/с
пор.,
м/с
влажн.,
%
обл.,
%
осадки,
мм/ч
давл.,
гПа
погр.,
м
13 апреля, вт
вт1300:00+7ююв51591100 0.0 1029627
03:00+6ююв41194100 0.0 1028424
06:00+6ююв41099100 0.0 1026353
09:00+7ююв3998100 0.0 1025354
12:00+9ю4891100 0.0 1024476
15:00+14ююз31079100 0.0 1022921
18:00+12ю1194100 0.0 102117
21:00+8ю249897 0.3 102163
14 апреля, ср
ср1400:00+7ююв239799 1.1 102155
03:00+7ююв259486 1.1 102083
06:00+6ююв28925 0.0 1019135
09:00+12ю4137514 0.0 1017450
12:00+15ююз4126866 0.0 1017714
15:00+16ююз51167100 0.0 10161221
18:00+13зюз378298 0.9 1016354
21:00+7ссз4894100 1.4 1019395
15 апреля, чт
чт1500:00+5с41089100 0.3 1021507
03:00+4с3884100 0.4 1022519
06:00+4с388996 0.1 1023564
09:00+6ссв477091 0.1 1025820
12:00+7ссв576097 0.0 10261170
15:00+7ссв574992 0.0 10271295
18:00+7св475269 0.0 10281208
21:00+3ссв3107268 0.0 1029290
16 апреля, пт
пт1600:00+1св3107636 0.0 1030293
03:000св39830 0.0 1031229
06:000св39783 0.0 1032302
09:00+4всв36445 0.0 1032639
12:00+8св35335 0.0 10311023
15:00+10св35346 0.0 10311233
18:00+9св25455 0.0 1031303
21:00+3св24666 0.0 103262
17 апреля, сб
сб1700:00+2св257664 0.0 103394
03:00+1св23835 0.0 103455
06:00+1ссв25871 0.0 1034108
09:00+7ссв23585 0.0 1033481
12:00+10ссв35445 0.0 10341377
15:00+11ссв454013 0.0 10341656
18:00+10ссв35505 0.0 1033737
21:00+5ссв22705 0.0 103422